Location: Agua Amarilla
(10.0342°N, 66.8490°W)
Time: 17:49:52
(UTC+00:00)

SL-16 R/B - Pass Details

Date: 26 June 2022
Orbit: 840 x 849 km, 71.0° (Epoch: 09 August)

Event Time Altitude Azimuth Distance (km) Brightness Sun altitude
Rises 23:16:57 0° 210° (SSW) 3,385 5.4 -6.5°
Reaches altitude 10° 23:19:31 10° 217° (SW) 2,452 4.8 -7.1°
Maximum altitude 23:24:47 41° 287° (WNW) 1,192 3.7 -8.3°
Drops below altitude 10° 23:30:04 10° 357° (N) 2,456 5.0 -9.4°
Sets 23:32:39 0° 4° (N) 3,392 5.7 -10.0°
